Tracking 23726 objects as of 16-Oct-2021
HD Live streaming from Space Station
objects crossing your sky now

ATLAS CENTAUR 2 DEB

Track ATLAS CENTAUR 2 DEB now!
10-day predictions


NORAD ID: 3741
Int'l Code: 1963-047L
Perigee: 600.3 km
Apogee: 1,072.5 km
Inclination: 29.9 °
Period: 101.5 minutes
Semi major axis: 7207 km
RCS: 0.0775 m2 (small)
Launch date: November 27, 1963
Source: United States (US)
Launch site: AIR FORCE EASTERN TEST RANGE (AFETR)

Note: This is SATELLITE DEBRIS
aabbcc
Your satellite tracking list
Your tracking list is empty




NASA's NSSDC Master Catalog

Two Line Element Set (TLE):
1 03741U 63047L   21288.73939180  .00001733  00000-0  45256-3 0  9995
2 03741  29.8876 116.7577 0327637 192.1160 167.1393 14.18847141668480
Source of the keplerian elements: AFSPC